Location: Prague
(50.0830°N, 14.4670°E)
Time: 16:13:06
(UTC+02:00)

DOVE 4 - Pass Details

Date: 02 April 2023
Orbit: 584 x 791 km, 97.8° (Epoch: 03 June)

Event Time Altitude Azimuth Distance (km) Brightness Sun altitude
Rises 00:41:21 0° 8° (N) 3,163 ? -34.9°
Reaches altitude 10° 00:43:47 10° 2° (N) 2,204 ? -35.0°
Enters shadow 00:46:14 27° 344° (NNW) 1,345 ? -35.0°
